Flag for U.S.A. Weather past 2 weeks in Wake Island, Wake Island, U.S.A.

Now
83 °F

Passing clouds.


Feels Like: 92 °F
Forecast: 82 / 88 °F
Wind: 18 mph from East

Location: Wake Island Airfld

Current Time: Sep 18, 2014 at 3:52:31 AM

Latest Report: Sep 18, 2014 at 2:58 AM


Visibility: N/A

Pressure: 29.92 "Hg

Humidity: 84%

Dew point: 77 °F

Location of Wake IslandLocation

Historic Weather in Wake Island — Graph

°F

Wake Island temperature yesterday

Maximum temperature yesterday: 89 °F (at 11:58 AM)
Minimum temperature yesterday: 79 °F (at 2:01 AM)
Average temperature yesterday: 84 °F

Past Weeks' High & Low Weather Summary

 TemperatureHumidityPressure
High90 °F (Sep 12, 1:00 PM)94% (Sep 12, 9:03 PM)30.02 "Hg (Sep 12, 9:03 PM)
Low79 °F (Sep 12, 7:58 PM)61% (Sep 8, 1:58 PM)29.81 "Hg (Sep 16, 1:58 PM)
Average85 °F76%29.93 "Hg
* Reported Sep 3 1:58 AM — Sep 18 1:58 AM, Wake Island, Weather by CustomWeather, © 2014

Note: Actual official high and low records may vary slightly from our data, if they occured in-between our weather recording intervals... More about our weather records

Advertising

Wake Island weather history for previous 24 hours

 ConditionsComfort  
Time TempWeatherWind HumidityBarometerVisibility
1:58 AM
Sep 18
81 °FPassing clouds.12 mph88%29.94 "HgN/A
12:58 AM82 °FClear.13 mph88%29.95 "HgN/A
11:59 PM
Sep 17
81 °FLight rain. Passing clouds.22 mph89%29.94 "HgN/A
11:58 PM82 °FPassing clouds.22 mph86%29.96 "HgN/A
11:04 PM81 °FLight rain. Partly cloudy.15 mph89%29.95 "HgN/A
9:58 PM83 °FPassing clouds.20 mph87%29.96 "HgN/A
8:58 PM82 °FPassing clouds.17 mph89%29.95 "HgN/A
7:59 PM82 °FPassing clouds.17 mph84%29.91 "HgN/A
6:58 PM85 °FPassing clouds.18 mph80%29.92 "HgN/A
5:58 PM85 °FPassing clouds.17 mph80%29.90 "HgN/A
4:58 PM87 °FScattered clouds.20 mph77%29.89 "HgN/A
3:58 PM88 °FSunny.18 mph72%29.89 "HgN/A
2:58 PM88 °FScattered clouds.22 mph72%29.89 "HgN/A
1:58 PM87 °FPassing clouds.21 mph75%29.89 "HgN/A
12:58 PM87 °FPartly sunny.14 mph78%29.91 "HgN/A
11:58 AM89 °FScattered clouds.18 mph72%29.93 "HgN/A
10:58 AM88 °FPassing clouds.16 mph72%29.94 "HgN/A
9:58 AM87 °FPassing clouds.16 mph75%29.94 "HgN/A
8:58 AM86 °FSunny.16 mph76%29.93 "HgN/A
7:58 AM84 °FPassing clouds.16 mph81%29.91 "HgN/A
6:58 AM83 °FPassing clouds.16 mph84%29.89 "HgN/A
5:58 AM83 °FPassing clouds.15 mph88%29.87 "HgN/A
4:58 AM83 °FPassing clouds.17 mph87%29.86 "HgN/A
3:58 AM82 °FClear.15 mph87%29.86 "HgN/A
Weather by CustomWeather, © 2014

See weather overviewHow to use our weather pages